Tracking 22130 objects as of 21-Jan-2021
HD Live streaming from Space Station
objects crossing your sky now

STARLINK-1791

Track STARLINK-1791 now!
10-day predictions
STARLINK-1791 is classified as:


NORAD ID: 46692
Int'l Code: 2020-073Y
Perigee: 553.0 km
Apogee: 555.6 km
Inclination: 53.1 °
Period: 95.6 minutes
Semi major axis: 6925 km
RCS: Unknown
Launch date: October 18, 2020
Source: United States (US)
Launch site: AIR FORCE EASTERN TEST RANGE (AFETR)
aabbcc
Your satellite tracking list
Your tracking list is empty




NASA's NSSDC Master Catalog

Two Line Element Set (TLE):
1 46692U 20073Y   21021.58335648 -.00015342  00000-0 -10128-2 0  9998
2 46692  53.0558  25.3209 0001844  57.5439  52.2743 15.06416987  1759
Source of the keplerian elements: AFSPC